owner,sensor,date,latitude,longitude,vertical_datum,wind_speed,wind_to_direction,wind_speed_of_gust,qcFlag 
TABS,ioos:station:wmo:42047:1,2012-10-01T00:00:00Z,27.8966,-93.5973,4.0,8.799420435,297.9919876,11.51,'11111222,11111222,11111222' 
TABS,ioos:station:wmo:42047:1,2012-10-01T00:30:00Z,27.8966,-93.5973,4.0,9.340369372,309.5698564,12.84,'11111222,11111222,11111222' 
TABS,ioos:station:wmo:42047:1,2012-10-01T01:00:00Z,27.8966,-93.5973,4.0,9.754347749,319.6152075,12.45,'11111222,11111222,11111222' 
TABS,ioos:station:wmo:42047:1,2012-10-01T01:30:00Z,27.8966,-93.5973,4.0,8.913371977,318.6385973,11.33,'11111222,11111222,11111222' 
TABS,ioos:station:wmo:42047:1,2012-10-01T02:00:00Z,27.8966,-93.5973,4.0,9.248918856,312.7653147,11.53,'11111222,11111222,11111222' 
TABS,ioos:station:wmo:42047:1,2012-10-01T02:30:00Z,27.8966,-93.5973,4.0,9.390085197,304.8069854,11.58,'11111222,11111222,11111222' 
TABS,ioos:station:wmo:42047:1,2012-10-01T03:00:00Z,27.8966,-93.5973,4.0,9.176589781,305.5085622,11.95,'11111222,11111222,11111222' 
TABS,ioos:station:wmo:42047:1,2012-10-01T03:30:00Z,27.8966,-93.5973,4.0,9.272135676,316.1797298,11.81,'11111222,11111222,11111222' 
TABS,ioos:station:wmo:42047:1,2012-10-01T04:00:00Z,27.8966,-93.5973,4.0,9.222933373,319.0886317,11.63,'11111222,11111222,11111222' 
TABS,ioos:station:wmo:42047:1,2012-10-01T04:30:00Z,27.8966,-93.5973,4.0,9.695039969,307.7090315,14.17,'11111222,11111222,11111222' 
TABS,ioos:station:wmo:42047:1,2012-10-01T05:00:00Z,27.8966,-93.5973,4.0,9.387358521,313.3164832,11.65,'11111222,11111222,11111222' 
TABS,ioos:station:wmo:42047:1,2012-10-01T05:30:00Z,27.8966,-93.5973,4.0,9.998984948,317.2289609,12.88,'11111222,11111222,11111222' 
TABS,ioos:station:wmo:42047:1,2012-10-01T06:00:00Z,27.8966,-93.5973,4.0,10.2291593,307.73243,13.01,'11111222,11111222,11111222' 
TABS,ioos:station:wmo:42047:1,2012-10-01T06:30:00Z,27.8966,-93.5973,4.0,10.56820231,305.2539864,13.26,'11111222,11111222,11111222' 
TABS,ioos:station:wmo:42047:1,2012-10-01T07:00:00Z,27.8966,-93.5973,4.0,10.14110448,315.8788385,13.04,'11111222,11111222,11111222' 
TABS,ioos:station:wmo:42047:1,2012-10-01T07:30:00Z,27.8966,-93.5973,4.0,10.14526983,312.163421,13.28,'11111222,11111222,11111222' 
TABS,ioos:station:wmo:42047:1,2012-10-01T08:00:00Z,27.8966,-93.5973,4.0,10.90886795,316.7828411,13.66,'11111222,11111222,11111222' 
TABS,ioos:station:wmo:42047:1,2012-10-01T08:30:00Z,27.8966,-93.5973,4.0,10.34669512,318.1732014,13.14,'11111222,11111222,11111222' 
TABS,ioos:station:wmo:42047:1,2012-10-01T09:00:00Z,27.8966,-93.5973,4.0,10.6434252,315.9515622,14.34,'11111222,11111222,11111222' 
TABS,ioos:station:wmo:42047:1,2012-10-01T09:30:00Z,27.8966,-93.5973,4.0,9.706832645,320.6855562,12.96,'11111222,11111222,11111222' 
TABS,ioos:station:wmo:42047:1,2012-10-01T10:00:00Z,27.8966,-93.5973,4.0,9.896918712,320.9874597,13.36,'11111222,11111222,11111222' 
TABS,ioos:station:wmo:42047:1,2012-10-01T10:30:00Z,27.8966,-93.5973,4.0,10.087522,325.8687102,12.84,'11111222,11111222,11111222' 
TABS,ioos:station:wmo:42047:1,2012-10-01T11:00:00Z,27.8966,-93.5973,4.0,9.629724814,321.1542285,12.94,'11111222,11111222,11111222' 
TABS,ioos:station:wmo:42047:1,2012-10-01T11:30:00Z,27.8966,-93.5973,4.0,9.772256648,321.8986339,12.01,'11111222,11111222,11111222' 
TABS,ioos:station:wmo:42047:1,2012-10-01T12:00:00Z,27.8966,-93.5973,4.0,10.32726973,329.9590745,13.6,'11111222,11111222,11111222' 
TABS,ioos:station:wmo:42047:1,2012-10-01T12:30:00Z,27.8966,-93.5973,4.0,9.224147657,332.073521,11.51,'11111222,11111222,11111222' 
TABS,ioos:station:wmo:42047:1,2012-10-01T13:00:00Z,27.8966,-93.5973,4.0,10.38957169,326.462752,13.12,'11111222,11111222,11111222' 
TABS,ioos:station:wmo:42047:1,2012-10-01T13:30:00Z,27.8966,-93.5973,4.0,9.7521331,336.7472517,12.61,'11111222,11111222,11111222' 
TABS,ioos:station:wmo:42047:1,2012-10-01T14:00:00Z,27.8966,-93.5973,4.0,10.1615796,340.6911618,13.56,'11111222,11111222,11111222' 
TABS,ioos:station:wmo:42047:1,2012-10-01T14:30:00Z,27.8966,-93.5973,4.0,9.600708307,341.4139075,12.38,'11111222,11111222,11111222' 
TABS,ioos:station:wmo:42047:1,2012-10-01T15:00:00Z,27.8966,-93.5973,4.0,9.445305712,342.9461589,12.73,'11111222,11111222,11111222' 
TABS,ioos:station:wmo:42047:1,2012-10-01T15:30:00Z,27.8966,-93.5973,4.0,10.03251215,346.8639441,14.05,'11111222,11111222,11111222' 
TABS,ioos:station:wmo:42047:1,2012-10-01T16:00:00Z,27.8966,-93.5973,4.0,10.3350133,344.1077363,13.29,'11111222,11111222,11111222' 
TABS,ioos:station:wmo:42047:1,2012-10-01T16:30:00Z,27.8966,-93.5973,4.0,9.194617991,345.7066495,13.05,'11111222,11111222,11111222' 
TABS,ioos:station:wmo:42047:1,2012-10-01T17:00:00Z,27.8966,-93.5973,4.0,8.781713956,341.3379307,10.82,'11111222,11111222,11111222' 
TABS,ioos:station:wmo:42047:1,2012-10-01T17:30:00Z,27.8966,-93.5973,4.0,8.352514591,336.504014,11.24,'11111222,11111222,11111222' 
TABS,ioos:station:wmo:42047:1,2012-10-01T18:00:00Z,27.8966,-93.5973,4.0,7.832962403,332.0607538,10.25,'11111222,11111222,11111222' 
TABS,ioos:station:wmo:42047:1,2012-10-01T18:30:00Z,27.8966,-93.5973,4.0,7.583824892,330.7984923,9.97,'11111222,11111222,11111222' 
TABS,ioos:station:wmo:42047:1,2012-10-01T19:00:00Z,27.8966,-93.5973,4.0,6.999292821,312.6260049,9.65,'11111222,11111222,11111222' 
TABS,ioos:station:wmo:42047:1,2012-10-01T19:30:00Z,27.8966,-93.5973,4.0,6.972201948,314.651244,8.9,'11111222,11111222,11111222' 
TABS,ioos:station:wmo:42047:1,2012-10-01T20:00:00Z,27.8966,-93.5973,4.0,6.906142194,308.296928,10.29,'11111222,11111222,11111222' 
TABS,ioos:station:wmo:42047:1,2012-10-01T20:30:00Z,27.8966,-93.5973,4.0,7.896188954,301.5361237,10.39,'11111222,11111222,11111222' 
TABS,ioos:station:wmo:42047:1,2012-10-01T21:00:00Z,27.8966,-93.5973,4.0,7.743900826,303.1974882,9.8,'11111222,11111222,11111222' 
TABS,ioos:station:wmo:42047:1,2012-10-01T21:30:00Z,27.8966,-93.5973,4.0,7.930952024,300.1211618,10.19,'11111222,11111222,11111222' 
TABS,ioos:station:wmo:42047:1,2012-10-01T22:00:00Z,27.8966,-93.5973,4.0,8.386000238,295.8010924,11.13,'11111222,11111222,11111222' 
TABS,ioos:station:wmo:42047:1,2012-10-01T22:30:00Z,27.8966,-93.5973,4.0,8.149269906,298.6721156,10.78,'11111222,11111222,11111222' 
TABS,ioos:station:wmo:42047:1,2012-10-01T23:00:00Z,27.8966,-93.5973,4.0,8.846971233,297.4628756,11.45,'11111222,11111222,11111222' 
TABS,ioos:station:wmo:42047:1,2012-10-01T23:30:00Z,27.8966,-93.5973,4.0,8.600802288,292.7786673,11.18,'11111222,11111222,11111222' 
TABS,ioos:station:wmo:42047:1,2012-10-02T00:00:00Z,27.8966,-93.5973,4.0,8.854699317,294.7705633,11.41,'11111222,11111222,11111222' 
TABS,ioos:station:wmo:42047:1,2012-10-02T00:30:00Z,27.8966,-93.5973,4.0,9.163416393,296.6488772,12.38,'11111222,11111222,11111222' 
TABS,ioos:station:wmo:42047:1,2012-10-02T01:00:00Z,27.8966,-93.5973,4.0,8.989021081,296.4224629,11.99,'11111222,11111222,11111222' 
TABS,ioos:station:wmo:42047:1,2012-10-02T01:30:00Z,27.8966,-93.5973,4.0,8.797618996,303.4551718,11.76,'11111222,11111222,11111222' 
TABS,ioos:station:wmo:42047:1,2012-10-02T02:00:00Z,27.8966,-93.5973,4.0,8.62717219,312.6041812,11.39,'11111222,11111222,11111222' 
TABS,ioos:station:wmo:42047:1,2012-10-02T02:30:00Z,27.8966,-93.5973,4.0,8.63046928,322.5324786,10.79,'11111222,11111222,11111222' 
TABS,ioos:station:wmo:42047:1,2012-10-02T03:00:00Z,27.8966,-93.5973,4.0,8.310024067,323.2678735,12.42,'11111222,11111222,11111222' 
TABS,ioos:station:wmo:42047:1,2012-10-02T03:30:00Z,27.8966,-93.5973,4.0,8.010274652,319.7089221,10.63,'11111222,11111222,11111222' 
TABS,ioos:station:wmo:42047:1,2012-10-02T04:00:00Z,27.8966,-93.5973,4.0,7.882366396,322.5775379,9.98,'11111222,11111222,11111222' 
TABS,ioos:station:wmo:42047:1,2012-10-02T04:30:00Z,27.8966,-93.5973,4.0,7.568196615,321.221839,10.02,'11111222,11111222,11111222' 
TABS,ioos:station:wmo:42047:1,2012-10-02T05:00:00Z,27.8966,-93.5973,4.0,7.161962022,347.4189479,9.19,'11111222,11111222,11111222' 
TABS,ioos:station:wmo:42047:1,2012-10-02T05:30:00Z,27.8966,-93.5973,4.0,7.05301354,342.5924982,8.72,'11111222,11111222,11111222' 
TABS,ioos:station:wmo:42047:1,2012-10-02T06:00:00Z,27.8966,-93.5973,4.0,7.131486521,339.0488508,9.19,'11111222,11111222,11111222' 
TABS,ioos:station:wmo:42047:1,2012-10-02T06:30:00Z,27.8966,-93.5973,4.0,6.074775716,341.7736645,8.53,'11111222,11111222,11111222' 
TABS,ioos:station:wmo:42047:1,2012-10-02T07:00:00Z,27.8966,-93.5973,4.0,5.921190759,349.3920474,7.64,'11111222,11111222,11111222' 
TABS,ioos:station:wmo:42047:1,2012-10-02T07:30:00Z,27.8966,-93.5973,4.0,5.825907655,342.6223381,7.49,'11111222,11111222,11111222' 
TABS,ioos:station:wmo:42047:1,2012-10-02T08:00:00Z,27.8966,-93.5973,4.0,5.312748818,338.1183253,7.46,'11111222,11111222,11111222' 
TABS,ioos:station:wmo:42047:1,2012-10-02T08:30:00Z,27.8966,-93.5973,4.0,4.658937647,340.4370094,6.59,'11111222,11111222,11111222' 
TABS,ioos:station:wmo:42047:1,2012-10-02T09:00:00Z,27.8966,-93.5973,4.0,3.989310717,336.1977665,6.2,'11111222,11111222,11111222' 
TABS,ioos:station:wmo:42047:1,2012-10-02T09:30:00Z,27.8966,-93.5973,4.0,4.884751785,332.1757582,6.41,'11111222,11111222,11111222' 
TABS,ioos:station:wmo:42047:1,2012-10-02T10:00:00Z,27.8966,-93.5973,4.0,4.405564663,318.312346,6.04,'11111222,11111222,11111222' 
TABS,ioos:station:wmo:42047:1,2012-10-02T10:30:00Z,27.8966,-93.5973,4.0,3.745463923,317.9217118,5.76,'11111222,11111222,11111222' 
TABS,ioos:station:wmo:42047:1,2012-10-02T11:00:00Z,27.8966,-93.5973,4.0,3.397484363,301.3975146,4.55,'11111222,11111222,11111222' 
TABS,ioos:station:wmo:42047:1,2012-10-02T11:30:00Z,27.8966,-93.5973,4.0,4.946281432,296.9276149,7.61,'11111222,11111222,11111222' 
TABS,ioos:station:wmo:42047:1,2012-10-02T12:00:00Z,27.8966,-93.5973,4.0,5.317377173,296.468613,7.3,'11111222,11111222,11111222' 
TABS,ioos:station:wmo:42047:1,2012-10-02T12:30:00Z,27.8966,-93.5973,4.0,6.310633883,311.7239206,8.44,'11111222,11111222,11111222' 
TABS,ioos:station:wmo:42047:1,2012-10-02T13:00:00Z,27.8966,-93.5973,4.0,6.156687421,306.013605,8.45,'11111222,11111222,11111222' 
TABS,ioos:station:wmo:42047:1,2012-10-02T13:30:00Z,27.8966,-93.5973,4.0,5.647583554,294.4774824,7.62,'11111222,11111222,11111222' 
TABS,ioos:station:wmo:42047:1,2012-10-02T14:00:00Z,27.8966,-93.5973,4.0,5.444299771,293.8342072,8.38,'11111222,11111222,11111222' 
TABS,ioos:station:wmo:42047:1,2012-10-02T14:30:00Z,27.8966,-93.5973,4.0,5.40741158,300.6911094,7.19,'11111222,11111222,11111222' 
TABS,ioos:station:wmo:42047:1,2012-10-02T15:00:00Z,27.8966,-93.5973,4.0,4.987273804,287.7446301,6.42,'11111222,11111222,11111222' 
TABS,ioos:station:wmo:42047:1,2012-10-02T15:30:00Z,27.8966,-93.5973,4.0,5.21080608,297.5485087,6.74,'11111222,11111222,11111222' 
TABS,ioos:station:wmo:42047:1,2012-10-02T16:00:00Z,27.8966,-93.5973,4.0,5.2341666,289.300333,6.7,'11111222,11111222,11111222' 
TABS,ioos:station:wmo:42047:1,2012-10-02T16:30:00Z,27.8966,-93.5973,4.0,5.173625421,288.0146518,6.95,'11111222,11111222,11111222' 
TABS,ioos:station:wmo:42047:1,2012-10-02T17:00:00Z,27.8966,-93.5973,4.0,5.008492787,292.417417,7.41,'11111222,11111222,11111222' 
TABS,ioos:station:wmo:42047:1,2012-10-02T17:30:00Z,27.8966,-93.5973,4.0,5.295592507,293.1275028,6.94,'11111222,11111222,11111222' 
TABS,ioos:station:wmo:42047:1,2012-10-02T18:00:00Z,27.8966,-93.5973,4.0,5.717429492,293.8301577,7.17,'11111222,11111222,11111222' 
TABS,ioos:station:wmo:42047:1,2012-10-02T18:30:00Z,27.8966,-93.5973,4.0,5.633134119,292.8780045,7.19,'11111222,11111222,11111222' 
TABS,ioos:station:wmo:42047:1,2012-10-02T19:00:00Z,27.8966,-93.5973,4.0,5.614267539,302.7842042,7.26,'11111222,11111222,11111222' 
TABS,ioos:station:wmo:42047:1,2012-10-02T19:30:00Z,27.8966,-93.5973,4.0,5.832752352,303.3902996,7.34,'11111222,11111222,11111222' 
TABS,ioos:station:wmo:42047:1,2012-10-02T20:00:00Z,27.8966,-93.5973,4.0,5.484013129,306.9951846,6.84,'11111222,11111222,11111222' 
TABS,ioos:station:wmo:42047:1,2012-10-02T20:30:00Z,27.8966,-93.5973,4.0,5.070355017,314.2807403,6.47,'11111222,11111222,11111222' 
TABS,ioos:station:wmo:42047:1,2012-10-02T21:00:00Z,27.8966,-93.5973,4.0,5.25384621,315.2312353,6.44,'11111222,11111222,11111222' 
TABS,ioos:station:wmo:42047:1,2012-10-02T21:30:00Z,27.8966,-93.5973,4.0,5.048920677,315.4813595,6.56,'11111222,11111222,11111222' 
TABS,ioos:station:wmo:42047:1,2012-10-02T22:00:00Z,27.8966,-93.5973,4.0,4.525505497,314.8208465,5.97,'11111222,11111222,11111222' 
TABS,ioos:station:wmo:42047:1,2012-10-02T22:30:00Z,27.8966,-93.5973,4.0,3.914511464,319.3509625,5.18,'11111222,11111222,11111222' 
TABS,ioos:station:wmo:42047:1,2012-10-02T23:00:00Z,27.8966,-93.5973,4.0,3.486215713,315.5809666,4.77,'11111222,11111222,11111222' 
TABS,ioos:station:wmo:42047:1,2012-10-02T23:30:00Z,27.8966,-93.5973,4.0,3.99530975,298.2327002,5.77,'11111222,11111222,11111222' 
TABS,ioos:station:wmo:42047:1,2012-10-03T00:00:00Z,27.8966,-93.5973,4.0,3.39249171,304.6737094,4.84,'11111222,11111222,11111222' 
TABS,ioos:station:wmo:42047:1,2012-10-03T00:30:00Z,27.8966,-93.5973,4.0,3.228002478,306.9408097,4.63,'11111222,11111222,11111222' 
TABS,ioos:station:wmo:42047:1,2012-10-03T01:00:00Z,27.8966,-93.5973,4.0,2.275280203,290.5854702,3.87,'11111222,11111222,11111222' 
TABS,ioos:station:wmo:42047:1,2012-10-03T01:30:00Z,27.8966,-93.5973,4.0,1.57,302.779004,3.18,'11111222,11111222,11111222' 
TABS,ioos:station:wmo:42047:1,2012-10-03T02:00:00Z,27.8966,-93.5973,4.0,1.390323703,324.3663828,2.62,'11111222,11111222,11111222' 
TABS,ioos:station:wmo:42047:1,2012-10-03T02:30:00Z,27.8966,-93.5973,4.0,1.076475731,324.8334357,2.34,'11111222,11111222,11111222' 
TABS,ioos:station:wmo:42047:1,2012-10-03T03:00:00Z,27.8966,-93.5973,4.0,1.465127981,278.2406926,2.77,'11111222,11111222,11111222' 
TABS,ioos:station:wmo:42047:1,2012-10-03T03:30:00Z,27.8966,-93.5973,4.0,1.664331698,302.7351497,2.86,'11111222,11111222,11111222' 
TABS,ioos:station:wmo:42047:1,2012-10-03T04:00:00Z,27.8966,-93.5973,4.0,1.748971126,250.6326977,2.84,'11111222,11111222,11111222' 
TABS,ioos:station:wmo:42047:1,2012-10-03T04:30:00Z,27.8966,-93.5973,4.0,2.084250465,242.5744115,2.99,'11111222,11111222,11111222' 
TABS,ioos:station:wmo:42047:1,2012-10-03T05:00:00Z,27.8966,-93.5973,4.0,2.63643699,217.9132264,4.31,'11111222,11111222,11111222' 
TABS,ioos:station:wmo:42047:1,2012-10-03T05:30:00Z,27.8966,-93.5973,4.0,2.69235956,228.6139775,4.09,'11111222,11111222,11111222' 
TABS,ioos:station:wmo:42047:1,2012-10-03T06:00:00Z,27.8966,-93.5973,4.0,2.675070093,244.7761356,3.91,'11111222,11111222,11111222' 
TABS,ioos:station:wmo:42047:1,2012-10-03T06:30:00Z,27.8966,-93.5973,4.0,2.86811785,233.6495909,4.01,'11111222,11111222,11111222' 
TABS,ioos:station:wmo:42047:1,2012-10-03T07:00:00Z,27.8966,-93.5973,4.0,3.249015235,227.6196479,4.99,'11111222,11111222,11111222' 
TABS,ioos:station:wmo:42047:1,2012-10-03T07:30:00Z,27.8966,-93.5973,4.0,3.22273176,241.0490725,5.22,'11111222,11111222,11111222' 
TABS,ioos:station:wmo:42047:1,2012-10-03T08:00:00Z,27.8966,-93.5973,4.0,3.52665564,232.0253613,4.72,'11111222,11111222,11111222' 
TABS,ioos:station:wmo:42047:1,2012-10-03T08:30:00Z,27.8966,-93.5973,4.0,3.531600204,241.040011,5.32,'11111222,11111222,11111222' 
TABS,ioos:station:wmo:42047:1,2012-10-03T09:00:00Z,27.8966,-93.5973,4.0,3.586990382,244.2208122,5.34,'11111222,11111222,11111222' 
TABS,ioos:station:wmo:42047:1,2012-10-03T09:30:00Z,27.8966,-93.5973,4.0,2.991320779,238.1165107,4.76,'11111222,11111222,11111222' 
TABS,ioos:station:wmo:42047:1,2012-10-03T10:00:00Z,27.8966,-93.5973,4.0,2.399541623,235.1841146,4.25,'11111222,11111222,11111222' 
TABS,ioos:station:wmo:42047:1,2012-10-03T10:30:00Z,27.8966,-93.5973,4.0,2.608696993,211.6795821,4.05,'11111222,11111222,11111222' 
TABS,ioos:station:wmo:42047:1,2012-10-03T11:00:00Z,27.8966,-93.5973,4.0,2.362541005,256.787284,3.78,'11111222,11111222,11111222' 
TABS,ioos:station:wmo:42047:1,2012-10-03T11:30:00Z,27.8966,-93.5973,4.0,2.998032688,239.75739,4.41,'11111222,11111222,11111222' 
TABS,ioos:station:wmo:42047:1,2012-10-03T12:00:00Z,27.8966,-93.5973,4.0,2.44,259.6111665,3.75,'11111222,11111222,11111222' 
TABS,ioos:station:wmo:42047:1,2012-10-03T12:30:00Z,27.8966,-93.5973,4.0,2.340534127,268.7759203,3.7,'11111222,11111222,11111222' 
TABS,ioos:station:wmo:42047:1,2012-10-03T13:00:00Z,27.8966,-93.5973,4.0,1.387551801,238.2573131,3.05,'11111222,11111222,11111222' 
TABS,ioos:station:wmo:42047:1,2012-10-03T13:30:00Z,27.8966,-93.5973,4.0,4.498977662,243.3211032,6.1,'11111222,11111222,11111222' 
TABS,ioos:station:wmo:42047:1,2012-10-03T14:00:00Z,27.8966,-93.5973,4.0,3.247106404,230.6237794,5.34,'11111222,11111222,11111222' 
TABS,ioos:station:wmo:42047:1,2012-10-03T14:30:00Z,27.8966,-93.5973,4.0,3.08058436,234.2461964,4.62,'11111222,11111222,11111222' 
TABS,ioos:station:wmo:42047:1,2012-10-03T15:00:00Z,27.8966,-93.5973,4.0,2.215513484,245.748728,3.51,'11111222,11111222,11111222' 
TABS,ioos:station:wmo:42047:1,2012-10-03T15:30:00Z,27.8966,-93.5973,4.0,1.459075049,294.2814033,2.52,'11111222,11111222,11111222' 
TABS,ioos:station:wmo:42047:1,2012-10-03T16:00:00Z,27.8966,-93.5973,4.0,0.99744674,244.4626253,2.63,'11111222,11111222,11111222' 
TABS,ioos:station:wmo:42047:1,2012-10-03T16:30:00Z,27.8966,-93.5973,4.0,1.231787319,262.0672602,2.77,'11111222,11111222,11111222' 
TABS,ioos:station:wmo:42047:1,2012-10-03T17:00:00Z,27.8966,-93.5973,4.0,1.641249524,288.1037207,2.7,'11111222,11111222,11111222' 
TABS,ioos:station:wmo:42047:1,2012-10-03T17:30:00Z,27.8966,-93.5973,4.0,1.446824108,278.7461418,3.32,'11111222,11111222,11111222' 
TABS,ioos:station:wmo:42047:1,2012-10-03T18:00:00Z,27.8966,-93.5973,4.0,2.29856477,281.7987649,3.54,'11111222,11111222,11111222' 
TABS,ioos:station:wmo:42047:1,2012-10-03T18:30:00Z,27.8966,-93.5973,4.0,1.462497863,297.2658183,3.3,'11111222,11111222,11111222' 
TABS,ioos:station:wmo:42047:1,2012-10-03T19:00:00Z,27.8966,-93.5973,4.0,1.245351356,258.4194079,2.79,'11111222,11111222,11111222' 
TABS,ioos:station:wmo:42047:1,2012-10-03T19:30:00Z,27.8966,-93.5973,4.0,2.254284809,278.4176375,3.68,'11111222,11111222,11111222' 
TABS,ioos:station:wmo:42047:1,2012-10-03T20:00:00Z,27.8966,-93.5973,4.0,1.982826266,261.2977966,3.04,'11111222,11111222,11111222' 
TABS,ioos:station:wmo:42047:1,2012-10-03T20:30:00Z,27.8966,-93.5973,4.0,1.697557068,264.5916805,2.8,'11111222,11111222,11111222' 
TABS,ioos:station:wmo:42047:1,2012-10-03T21:00:00Z,27.8966,-93.5973,4.0,1.681546907,296.8697503,2.71,'11111222,11111222,11111222' 
TABS,ioos:station:wmo:42047:1,2012-10-03T21:30:00Z,27.8966,-93.5973,4.0,1.42442971,249.0202959,2.46,'11111222,11111222,11111222' 
TABS,ioos:station:wmo:42047:1,2012-10-03T22:00:00Z,27.8966,-93.5973,4.0,1.812980971,249.6659345,2.89,'11111222,11111222,11111222' 
TABS,ioos:station:wmo:42047:1,2012-10-03T22:30:00Z,27.8966,-93.5973,4.0,0.660984115,252.3874633,1.43,'11111222,11111222,11111222' 
TABS,ioos:station:wmo:42047:1,2012-10-03T23:00:00Z,27.8966,-93.5973,4.0,0.974525526,218.7517482,2.08,'11111222,11111222,11111222' 
TABS,ioos:station:wmo:42047:1,2012-10-03T23:30:00Z,27.8966,-93.5973,4.0,1.011187421,224.5994429,2.4,'11111222,11111222,11111222' 
TABS,ioos:station:wmo:42047:1,2012-10-04T00:00:00Z,27.8966,-93.5973,4.0,1.617219837,220.4861273,2.46,'11111222,11111222,11111222' 
TABS,ioos:station:wmo:42047:1,2012-10-04T00:30:00Z,27.8966,-93.5973,4.0,2.375920874,208.3988971,3.71,'11111222,11111222,11111222' 
TABS,ioos:station:wmo:42047:1,2012-10-04T01:00:00Z,27.8966,-93.5973,4.0,0.950841732,177.5891864,1.8,'11111222,11111222,11111222' 
TABS,ioos:station:wmo:42047:1,2012-10-04T01:30:00Z,27.8966,-93.5973,4.0,1.913138782,203.0807737,2.85,'11111222,11111222,11111222' 
TABS,ioos:station:wmo:42047:1,2012-10-04T02:00:00Z,27.8966,-93.5973,4.0,2.18579505,197.0258115,3.92,'11111222,11111222,11111222' 
TABS,ioos:station:wmo:42047:1,2012-10-04T02:30:00Z,27.8966,-93.5973,4.0,0.833546639,149.743844,1.68,'11111222,11111222,11111222' 
TABS,ioos:station:wmo:42047:1,2012-10-04T03:00:00Z,27.8966,-93.5973,4.0,1.275774275,189.0195118,1.95,'11111222,11111222,11111222' 
TABS,ioos:station:wmo:42047:1,2012-10-04T03:30:00Z,27.8966,-93.5973,4.0,1.691862879,186.7891692,2.84,'11111222,11111222,11111222' 
TABS,ioos:station:wmo:42047:1,2012-10-04T04:00:00Z,27.8966,-93.5973,4.0,1.830519052,146.1365991,3.02,'11111222,11111222,11111222' 
TABS,ioos:station:wmo:42047:1,2012-10-04T04:30:00Z,27.8966,-93.5973,4.0,1.600499922,178.5681176,2.9,'11111222,11111222,11111222' 
TABS,ioos:station:wmo:42047:1,2012-10-04T05:00:00Z,27.8966,-93.5973,4.0,0.313049517,296.5649891,0.73,'11111222,11111222,11111222' 
TABS,ioos:station:wmo:42047:1,2012-10-04T05:30:00Z,27.8966,-93.5973,4.0,1.264911064,161.5653047,2.1,'11111222,11111222,11111222' 
TABS,ioos:station:wmo:42047:1,2012-10-04T06:00:00Z,27.8966,-93.5973,4.0,1.140394669,125.3628001,1.74,'11111222,11111222,11111222' 
TABS,ioos:station:wmo:42047:1,2012-10-04T06:30:00Z,27.8966,-93.5973,4.0,1.083005078,132.380773,2.04,'11111222,11111222,11111222' 
TABS,ioos:station:wmo:42047:1,2012-10-04T07:00:00Z,27.8966,-93.5973,4.0,1.797442628,132.745746,2.93,'11111222,11111222,11111222' 
TABS,ioos:station:wmo:42047:1,2012-10-04T07:30:00Z,27.8966,-93.5973,4.0,2.313655117,130.091265,3.32,'11111222,11111222,11111222' 
TABS,ioos:station:wmo:42047:1,2012-10-04T08:00:00Z,27.8966,-93.5973,4.0,3.229427194,125.1667747,4.41,'11111222,11111222,11111222' 
TABS,ioos:station:wmo:42047:1,2012-10-04T08:30:00Z,27.8966,-93.5973,4.0,3.722284245,119.8025092,5.46,'11111222,11111222,11111222' 
TABS,ioos:station:wmo:42047:1,2012-10-04T09:00:00Z,27.8966,-93.5973,4.0,3.893134984,125.4866908,5.94,'11111222,11111222,11111222' 
TABS,ioos:station:wmo:42047:1,2012-10-04T09:30:00Z,27.8966,-93.5973,4.0,4.080196074,127.4319364,5.6,'11111222,11111222,11111222' 
TABS,ioos:station:wmo:42047:1,2012-10-04T10:00:00Z,27.8966,-93.5973,4.0,3.97,125.0514757,5.39,'11111222,11111222,11111222' 
TABS,ioos:station:wmo:42047:1,2012-10-04T10:30:00Z,27.8966,-93.5973,4.0,3.931539139,134.7942171,4.79,'11111222,11111222,11111222' 
TABS,ioos:station:wmo:42047:1,2012-10-04T11:00:00Z,27.8966,-93.5973,4.0,4.129128237,150.393087,5.36,'11111222,11111222,11111222' 
TABS,ioos:station:wmo:42047:1,2012-10-04T11:30:00Z,27.8966,-93.5973,4.0,3.943209353,148.1643242,5.23,'11111222,11111222,11111222' 
TABS,ioos:station:wmo:42047:1,2012-10-04T12:00:00Z,27.8966,-93.5973,4.0,4.315889248,147.0098124,5.58,'11111222,11111222,11111222' 
TABS,ioos:station:wmo:42047:1,2012-10-04T12:30:00Z,27.8966,-93.5973,4.0,4.061329831,162.8145445,6.19,'11111222,11111222,11111222' 
TABS,ioos:station:wmo:42047:1,2012-10-04T13:00:00Z,27.8966,-93.5973,4.0,3.998112054,153.2429549,5.4,'11111222,11111222,11111222' 
TABS,ioos:station:wmo:42047:1,2012-10-04T13:30:00Z,27.8966,-93.5973,4.0,3.98553635,146.1507353,5.85,'11111222,11111222,11111222' 
TABS,ioos:station:wmo:42047:1,2012-10-04T14:00:00Z,27.8966,-93.5973,4.0,3.836469731,148.7547887,4.99,'11111222,11111222,11111222' 
TABS,ioos:station:wmo:42047:1,2012-10-04T14:30:00Z,27.8966,-93.5973,4.0,3.450507209,158.9389052,4.9,'11111222,11111222,11111222' 
TABS,ioos:station:wmo:42047:1,2012-10-04T15:00:00Z,27.8966,-93.5973,4.0,3.651643466,156.9458916,5.12,'11111222,11111222,11111222' 
TABS,ioos:station:wmo:42047:1,2012-10-04T15:30:00Z,27.8966,-93.5973,4.0,3.222436966,161.1717197,4.12,'11111222,11111222,11111222' 
TABS,ioos:station:wmo:42047:1,2012-10-04T16:00:00Z,27.8966,-93.5973,4.0,3.288236609,171.2540686,4.5,'11111222,11111222,11111222' 
TABS,ioos:station:wmo:42047:1,2012-10-04T16:30:00Z,27.8966,-93.5973,4.0,2.628193296,167.9207077,3.99,'11111222,11111222,11111222' 
TABS,ioos:station:wmo:42047:1,2012-10-04T17:00:00Z,27.8966,-93.5973,4.0,2.919246478,158.709105,4.31,'11111222,11111222,11111222' 
TABS,ioos:station:wmo:42047:1,2012-10-04T17:30:00Z,27.8966,-93.5973,4.0,3.131676867,138.6250605,4.4,'11111222,11111222,11111222' 
TABS,ioos:station:wmo:42047:1,2012-10-04T18:00:00Z,27.8966,-93.5973,4.0,3.16183491,146.611775,4.55,'11111222,11111222,11111222' 
TABS,ioos:station:wmo:42047:1,2012-10-04T18:30:00Z,27.8966,-93.5973,4.0,3.246074552,143.5187185,4.48,'11111222,11111222,11111222' 